Regional Weather Roundup
Issued by NWS

Home | Current Version | Previous Version | Graphics & Text | Print | Product List | Glossary On
Versions: 1 2 3 4 5 6 7 8 9 10 11 12 13 14 15 16 17 18 19 20 21 22 23 24 25 26 27 28 29 30 31 32 33 34 35 36 37 38 39 40 41 42 43 44 45 46 47 48 49 50
000
ASUS43 KLOT 150110
RWRIL

ILLINOIS REGIONAL WEATHER ROUNDUP
NATIONAL WEATHER SERVICE CHICAGO/ROMEOVILLE IL
800 PM CDT SUN SEP 14 2014

NOTE: "FAIR" INDICATES FEW OR NO CLOUDS BELOW 12,000 FEET WITH NO
SIGNIFICANT WEATHER AND/OR OBSTRUCTIONS TO VISIBILITY.

* THESE STATIONS ARE NOT UNDER NWS QUALITY CONTROL. THEY ALSO MAY NOT
  REPORT WEATHER SUCH AS PRECIPITATION OR FOG.

ILZ001-002-007-009-015-016-024-150200-
NORTHWEST ILLINOIS

CITY           SKY/WX    TMP DP  RH WIND       PRES   REMARKS
MOLINE         CLEAR     55  49  80 CALM      30.16S
STERLING*      CLEAR     57  46  67 SW3       30.16S
SAVANNA*       CLEAR     56  48  72 S3        30.15R
$$

ILZ003-004-008-010-011-017-018-150200-
NORTH CENTRAL ILLINOIS

CITY           SKY/WX    TMP DP  RH WIND       PRES   REMARKS
ROCKFORD       PTCLDY    56  47  71 S5        30.17F
FREEPORT*      PTCLDY    52  48  84 SW3       30.17S
ROCHELLE*      CLEAR     52  47  81 S7        30.17S
DE KALB*       CLEAR     50  46  84 S7        30.18S
PERU*          CLEAR     60  45  57 S3        30.17F
$$

ILZ005-006-012>014-019>023-150200-
NORTHEAST ILLINOIS

CITY           SKY/WX    TMP DP  RH WIND       PRES   REMARKS
CHICAGO-OHARE  PTCLDY    59  44  57 SW5       30.17S
CHICAGO-MIDWAY PTCLDY    64  44  48 S5        30.17F
AURORA         CLEAR     55  44  66 S3        30.17F
LANSING*       CLEAR     56  47  70 CALM      30.19S
JOLIET*        CLEAR     53  48  83 CALM      30.19S
WAUKEGAN       PTCLDY    54  48  80 SW3       30.16S
DUPAGE AIRPORT CLEAR     55  47  74 CALM      30.17F
KANKAKEE*      CLEAR     54  49  85 CALM      30.19S
WHEELING       PTCLDY    62  44  51 CALM      30.19S
MORRIS*        CLEAR     58  48  69 CALM      30.18S
ROMEOVILLE*    CLEAR     54  46  74 S3        30.18S
NORTHERLY ISL    N/A     63  41  44 SW5         N/A
$$

LMZ740>746-150200-
SOUTHERN LAKE MICHIGAN

STATION/POSITION SKY/WX   TEMP    WIND        PRES    VSBY  WAVE
                          AIR SEA DIR/SP/G                  HT/PER
                          (F)     (DEG/KT/KT) (MB)    (MI)  (FT/S)
SOUTHERN BUOY              61 65  190/ 12/ 14 1021.9F         1/ 3
WAUKEGAN HARBOR            61     220/  6/  7   N/A
HARRISON CRIB              63     200/ 10/ 11   N/A
BURNHAM HARBOR             63     190/  3/  8   N/A
CALUMET HARBOR             62     190/  3/  4 1020.7F
MICHIGAN CITY              62     160/  7/  8   N/A
MICHIGAN CITY 6N           63 65  190/  8/ 10   N/A           1
ST. JOSEPH                 62 67  150/  6/  8   N/A           1
$$

ILZ025>027-034>036-040-047-049-050-058-095>099-150200-
WEST-CENTRAL ILLINOIS

CITY           SKY/WX    TMP DP  RH WIND       PRES   REMARKS
QUINCY         CLEAR     58  49  72 SE6       30.16S
GALESBURG*     CLEAR     58  47  67 SE5       30.16S
MACOMB*        CLEAR     55  50  85 S3        30.18S
JACKSONVILLE*  CLEAR     57  51  79 CALM      30.19R
PITTSFIELD*    CLEAR     59  49  71 CALM      30.18S
$$

ILZ028>032-037-038-041>044-048-051>054-059>061-150200-
CENTRAL ILLINOIS

CITY           SKY/WX    TMP DP  RH WIND       PRES   REMARKS
PONTIAC        CLEAR     55  52  88 CALM      30.18S
DECATUR        CLEAR     59  48  67 CALM      30.20R
PEORIA         CLEAR     58  50  75 CALM      30.17F
LACON*         CLEAR     53  48  82 CALM      30.16F
LINCOLN*       CLEAR     58  48  70 CALM      30.17R
SPRINGFIELD    CLEAR     56  50  80 CALM      30.18S
TAYLORVILLE    CLEAR     54  48  82 S5        30.19S
$$

ILZ033-039-045-046-055>057-062-063-150200-
EAST-CENTRAL ILLINOIS

CITY           SKY/WX    TMP DP  RH WIND       PRES   REMARKS
CHAMPAIGN      CLEAR     56  46  69 SE5       30.19F
DANVILLE*      CLEAR     53  49  86 CALM      30.18S
RANTOUL*       CLEAR     60  48  64 CALM      30.20S
MATTOON        CLEAR     57  49  74 S3        30.19F
PARIS*         CLEAR     52  50  92 CALM      30.21R
$$

ILZ079-100>102-150200-
SOUTHWEST ILLINOIS

CITY           SKY/WX    TMP DP  RH WIND       PRES   REMARKS
CAHOKIA*       CLEAR     62  52  69 CALM      30.18S
SPARTA*        CLEAR     57  50  78 E3        30.20S
$$

ILZ064>066-069>071-074>076-080>082-084>086-088>090-092>094-150200-
SOUTH-CENTRAL ILLINOIS

CITY           SKY/WX    TMP DP  RH WIND       PRES   REMARKS
CARBONDALE     CLEAR     56  52  86 CALM      30.19F
CAIRO*         CLEAR     60  55  82 CALM      30.18F
EFFINGHAM*     CLEAR     55  50  84 CALM      30.20S
MARION         CLEAR     59  54  82 CALM      30.20S
MT. VERNON     CLEAR     55  48  76 CALM      30.20F
CENTRALIA*     CLEAR     55  51  87 CALM      30.20S
SALEM*         CLEAR     56  53  92 CALM      30.21R
METROPOLIS*    CLEAR     59  56  90 CALM      30.19R
$$

ILZ067-068-072-073-078-083-087-091-150200-
SOUTHEAST ILLINOIS

CITY           SKY/WX    TMP DP  RH WIND       PRES   REMARKS
LAWRENCEVILLE  CLEAR     57  52  83 N3        30.21R
FLORA*         CLEAR     62  48  60 CALM      30.21S
FAIRFIELD*     CLEAR    N/A N/A N/A CALM      30.20S
HARRISBURG*    CLEAR     58  56  91 CALM      30.21R
ROBINSON*      CLEAR     56  52  86 CALM      30.22R
CARMI*         CLEAR     57  55  92 CALM      30.20R
$$

ABBREVIATIONS USED IN REMARKS
   TC - TEMPERATURE IN CELSIUS
  WCI - WIND CHILL INDEX
   HX - HEAT INDEX
  VSB - VISIBILITY
$$



USA.gov is the U.S. government's official web portal to all federal, state and local government web resources and services.